Wind_Speed
32 25 24 16 10 11 19 29 21 22 19 10 6 11 18 15 15 16 10 11 14 19 32 31 29 29 28 27 22 20 23 23 27 30 37 48 48 43 42 40 32 37 53
23 20 19 10 5 10 18 25 21 19 17 7 5 17 13 11 9 14 13 20 27 29 32 32 32 34 26 24 25 25 30 43 41 43 49 53 41 38 35 39 35 34 35
19 18 15 7 6 7 15 20 21 18 16 6 4 12 14 15 17 18 24 25 35 37 37 35 37 37 33 32 34 37 46 43 41 42 46 42 38 34 32 31 28 27 31
18 16 10 9 8 7 11 17 22 21 13 10 7 11 13 16 14 15 18 30 47 42 48 44 40 39 38 39 42 45 45 41 41 43 40 37 33 28 27 27 28 28 26
17 13 9 10 10 8 11 15 20 21 13 7 5 15 19 16 10 14 24 53 48 54 40 40 36 33 36 38 47 40 34 37 34 39 34 30 33 32 30 30 30 29 29
14 9 4 8 9 10 12 12 18 20 9 1 7 22 18 18 13 19 47 54 54 37 41 43 37 39 36 37 44 37 31 33 34 33 29 29 25 26 30 30 30 28 25
11 7 2 3 5 6 7 10 16 16 12 3 7 24 22 19 19 23 51 47 48 34 39 41 40 42 38 40 34 34 29 30 31 30 26 24 22 23 22 23 21 21 20
8 7 1 1 4 4 5 8 13 14 12 5 5 23 25 23 19 24 43 36 33 36 37 41 38 39 39 37 34 29 27 27 27 25 24 19 17 17 10 13 16 19 24
7 10 4 4 6 6 1 6 8 9 8 8 6 23 26 25 22 19 27 29 33 36 40 30 35 28 31 34 30 29 29 21 22 23 22 22 18 19 19 18 22 22 26
6 8 10 5 4 5 3 4 6 9 1 4 7 24 25 25 24 19 18 25 30 35 36 30 31 24 21 23 26 26 21 22 23 21 15 19 19 22 22 23 25 30 36
5 8 9 9 5 3 5 4 7 9 10 6 8 18 26 25 22 23 23 21 29 24 29 26 24 32 23 27 24 26 21 25 26 24 27 27 29 31 32 35 40 44 44
4 8 9 9 8 6 4 3 8 10 8 5 8 11 23 25 24 26 23 22 25 21 23 29 26 27 28 27 25 27 28 28 32 34 39 39 39 39 42 47 47 44 46
4 8 10 9 10 8 5 4 7 8 6 4 5 9 17 31 24 24 24 24 18 19 18 17 17 21 27 28 22 23 22 24 27 26 26 28 29 32 38 39 42 43 43
4 5 6 8 9 10 8 6 7 7 7 6 5 8 10 21 24 18 20 21 18 18 18 14 12 15 15 17 19 19 19 18 20 20 23 27 29 32 37 38 40 36 37
6 7 7 7 9 10 10 7 5 5 6 7 5 8 9 13 24 22 19 17 13 17 14 13 14 13 15 19 22 21 23 24 24 24 25 29 29 25 26 31 36 40 40
2 6 9 11 10 8 9 9 7 5 5 7 7 8 8 7 11 19 23 20 17 18 19 17 16 18 18 19 21 20 21 19 17 17 18 21 24 27 28 24 26 31 33
3 2 6 5 8 11 11 9 7 6 5 3 4 8 9 8 9 10 11 12 15 18 23 25 21 21 20 17 15 15 16 16 15 16 20 16 8 11 19 22 25 28 29
6 4 4 6 6 6 6 7 8 8 7 5 3 1 4 7 10 12 12 12 12 14 16 17 16 15 15 15 16 17 17 17 13 5 5 4 8 15 18 21 25 33 39
10 6 6 5 4 5 7 4 6 8 7 8 8 6 3 2 5 7 9 11 13 15 16 16 15 15 15 15 14 12 9 7 7 10 1 2 5 20 38 34 42 31 42
17 13 11 9 7 5 4 6 4 2 1 0 1 3 6 6 4 3 6 7 9 10 11 11 12 11 11 10 8 4 4 9 9 4 4 4 12 23 34 36 38 34 36
25 21 18 14 11 10 9 8 5 4 6 5 4 3 3 4 6 6 4 2 2 3 4 5 5 3 4 5 4 7 1 3 7 11 16 17 19 26 35 40 41 43 47
32 27 23 21 19 16 15 14 11 7 4 6 3 1 7 5 6 5 5 3 2 3 1 2 2 2 3 2 3 7 9 13 12 14 18 21 27 28 36 32 45 42 48
36 35 30 27 26 24 21 20 18 15 10 12 9 7 8 7 11 8 8 11 9 9 6 5 5 7 9 12 12 10 12 14 15 16 25 25 29 37 42 41 42 46 50
45 43 40 37 33 31 30 28 25 23 22 19 22 22 21 20 21 19 19 16 11 12 14 12 12 14 14 13 14 15 13 20 26 24 30 32 37 37 47 44 41 48 55
52 50 48 46 43 38 37 34 31 31 31 30 31 29 29 27 27 26 24 22 24 23 20 18 20 20 19 19 23 26 28 28 27 31 31 33 42 44 49 50 53 54 58
53 52 52 50 49 45 45 44 42 39 37 37 34 34 34 37 35 31 29 31 29 26 28 27 30 29 27 28 29 33 34 36 39 42 39 40 47 51 53 53 56 56 60
Wind_Direction
310 304 295 304 289 326 345 349 350 348 342 325 50 86 77 62 52 41 45 86 98 118 119 114 123 124 128 132 131 134 148 139 136 147 139 134 133 139 144 142 157 182 194
309 304 300 292 270 341 341 346 348 350 341 320 95 115 86 63 42 66 64 99 115 116 119 112 117 121 138 130 126 133 137 131 130 138 139 143 143 144 149 155 164 181 190
313 302 304 258 245 322 336 344 352 345 342 327 167 131 104 84 58 57 98 108 126 122 118 113 114 120 115 123 134 134 137 133 133 139 148 148 146 154 162 166 174 186 197
311 305 299 228 244 303 325 336 345 342 339 332 215 145 117 97 68 77 113 124 126 125 121 121 129 134 134 134 136 136 140 143 142 148 153 150 159 168 169 173 177 184 193
307 307 287 235 248 291 315 330 338 336 323 309 217 145 128 98 87 88 117 133 133 123 124 139 135 141 140 140 139 135 139 149 149 152 152 153 160 169 173 179 181 191 204
311 311 278 250 249 280 315 327 333 341 344 307 188 150 136 117 106 94 143 141 140 136 146 146 142 144 151 140 147 150 148 153 156 162 166 174 170 177 184 196 206 218 231
323 332 331 258 256 278 319 328 352 11 37 90 163 159 145 131 106 104 147 145 149 150 153 156 142 145 146 154 152 158 158 165 168 170 172 165 178 201 203 218 228 238 250
339 11 41 195 216 270 317 1 22 11 7 24 140 173 155 138 127 117 154 153 154 158 161 159 147 147 157 157 165 169 169 167 173 178 182 197 206 217 246 251 258 260 270
359 27 33 220 230 234 55 44 23 13 3 4 148 174 163 146 136 131 139 163 164 175 169 165 156 147 169 175 164 168 177 178 191 194 200 201 216 232 230 236 273 260 270
7 34 35 30 230 231 154 87 48 78 329 31 119 170 174 154 145 143 144 172 175 176 183 173 181 182 181 187 193 184 190 199 207 215 222 227 238 243 266 281 284 288 289
19 43 44 54 76 156 166 108 71 86 71 52 124 164 176 170 165 155 135 141 171 179 185 197 204 203 202 209 215 215 233 235 237 238 249 262 260 271 272 277 282 286 289
29 60 60 58 71 107 151 127 84 95 83 60 96 137 182 171 169 165 157 156 152 163 186 201 204 212 209 222 227 236 241 241 246 253 254 266 274 278 272 278 281 286 285
66 82 77 76 77 93 117 165 125 108 102 77 99 117 157 181 178 176 177 181 176 175 167 172 184 198 217 229 235 236 237 245 246 249 255 257 261 265 270 277 279 281 287
60 90 84 78 78 85 91 123 145 126 104 92 90 104 124 170 187 193 181 184 184 184 179 202 218 218 213 220 227 232 238 239 244 250 262 264 266 272 278 282 286 291 296
62 69 71 95 87 83 83 87 114 162 146 135 136 145 142 167 190 197 209 213 202 209 211 215 213 228 236 238 237 245 247 253 259 266 271 276 287 297 300 299 301 303 304
74 69 70 79 96 94 91 90 83 100 134 167 164 163 179 179 191 207 218 222 223 208 216 224 235 240 249 246 259 251 257 264 273 276 285 297 299 299 303 310 311 304 301
161 58 33 72 91 94 94 90 93 96 88 108 159 182 187 188 200 208 210 215 220 225 232 243 253 249 255 253 250 247 244 253 268 276 285 298 312 335 340 21 16 6 9
200 242 311 3 37 71 96 104 103 96 93 88 90 146 201 203 212 218 220 224 228 233 237 241 246 245 247 257 262 265 268 276 284 296 140 46 44 44 11 354 9 17 7
217 213 241 279 339 23 30 65 100 107 102 102 105 105 116 209 227 227 228 232 235 240 243 248 253 257 264 272 275 275 281 276 234 176 216 34 5 1 356 347 353 356 7
227 225 221 228 247 287 340 13 35 38 48 90 103 111 118 127 142 217 239 233 233 236 242 249 254 257 260 272 286 264 192 164 177 195 190 218 303 338 352 1 2 355 352
231 231 230 230 233 239 251 274 302 355 348 328 308 233 175 134 127 126 132 164 257 270 251 253 267 280 290 256 198 151 133 305 289 284 287 293 288 312 324 344 349 355 357
231 232 234 237 240 242 247 250 260 267 285 233 284 279 171 115 38 42 44 20 168 154 140 84 90 106 68 108 261 300 303 333 331 345 355 336 335 331 338 330 341 336 342
236 239 239 241 241 243 247 250 256 259 253 222 213 223 199 278 309 315 317 320 298 290 266 246 231 240 261 280 300 307 315 309 315 318 324 331 317 327 337 332 322 332 332
242 244 245 246 247 245 245 249 252 252 254 252 242 242 236 250 266 283 284 281 283 274 268 265 258 257 269 288 297 302 296 307 321 315 324 324 325 325 336 331 328 330 322
242 243 246 248 249 248 246 244 245 250 251 252 255 254 265 266 264 273 277 274 285 271 274 274 279 277 272 276 296 306 296 297 298 307 305 308 319 320 322 325 325 328 331
246 246 248 249 251 251 249 248 247 247 252 256 257 258 259 265 269 266 271 279 282 273 264 270 276 278 287 292 293 296 299 306 302 301 302 301 307 313 318 319 319 322 325
Height
10638 10634 10631 10628 10628 10627 10624 10621 10617 10613 10610 10608 10606 10605 10603 10600 10598 10597 10595 10594 10593 10592 10596 10599 10600 10603 10607 10609 10612 10616 10623 10631 10637 10642 10646 10654 10663 10671 10679 10687 10701 10708 10715
10632 10629 10627 10625 10626 10624 10623 10620 10617 10614 10611 10610 10608 10607 10606 10604 10602 10599 10598 10597 10596 10598 10602 10604 10606 10609 10612 10613 10619 10625 10630 10636 10641 10648 10653 10662 10668 10678 10686 10693 10702 10712 10719
10627 10625 10623 10622 10624 10623 10622 10620 10617 10614 10612 10611 10610 10609 10608 10607 10604 10602 10601 10600 10601 10604 10608 10610 10612 10615 10617 10621 10627 10633 10640 10644 10649 10655 10661 10667 10674 10683 10692 10699 10706 10713 10719
10624 10622 10620 10620 10621 10621 10621 10619 10617 10614 10612 10611 10611 10611 10610 10610 10608 10607 10605 10605 10607 10610 10613 10616 10620 10623 10627 10629 10636 10643 10649 10654 10659 10664 10669 10674 10680 10687 10694 10701 10707 10712 10717
10622 10619 10618 10618 10619 10620 10620 10618 10616 10613 10610 10610 10612 10612 10612 10612 10611 10609 10609 10611 10615 10616 10620 10623 10626 10631 10636 10640 10645 10650 10656 10661 10665 10670 10673 10678 10684 10690 10696 10701 10706 10710 10713
10620 10617 10615 10616 10618 10618 10618 10618 10615 10610 10607 10608 10611 10613 10615 10615 10616 10614 10614 10617 10621 10622 10626 10628 10632 10636 10642 10647 10652 10656 10661 10664 10670 10673 10678 10682 10686 10691 10695 10700 10704 10709 10711
10618 10614 10613 10614 10615 10617 10617 10617 10615 10610 10609 10610 10612 10615 10617 10619 10620 10619 10620 10626 10629 10630 10634 10636 10640 10645 10650 10653 10657 10661 10665 10668 10672 10675 10679 10685 10689 10693 10697 10701 10704 10707 10711
10617 10613 10612 10613 10615 10615 10616 10617 10615 10613 10613 10613 10614 10617 10619 10621 10624 10625 10627 10630 10634 10636 10640 10643 10647 10652 10654 10656 10661 10665 10669 10673 10676 10681 10685 10689 10691 10695 10698 10701 10704 10706 10707
10617 10614 10612 10614 10615 10615 10617 10618 10617 10616 10614 10613 10614 10618 10621 10624 10626 10628 10630 10634 10638 10641 10644 10650 10654 10657 10658 10660 10665 10670 10673 10677 10681 10684 10688 10691 10694 10696 10698 10700 10702 10704 10704
10617 10615 10613 10613 10614 10615 10617 10618 10619 10618 10616 10615 10616 10619 10623 10626 10629 10631 10634 10636 10640 10644 10651 10656 10659 10661 10665 10667 10670 10673 10676 10679 10682 10684 10687 10690 10692 10695 10696 10698 10700 10700 10700
10617 10616 10615 10614 10614 10615 10617 10619 10620 10618 10618 10619 10618 10620 10624 10628 10632 10635 10637 10639 10644 10649 10653 10657 10661 10664 10667 10670 10673 10675 10677 10680 10682 10684 10686 10686 10689 10691 10692 10693 10693 10694 10693
10619 10617 10616 10616 10615 10616 10618 10620 10621 10621 10621 10622 10621 10622 10626 10630 10634 10637 10640 10642 10648 10651 10654 10658 10661 10664 10667 10670 10672 10675 10677 10680 10681 10682 10684 10686 10688 10688 10688 10688 10687 10686 10684
10621 10620 10618 10618 10618 10618 10620 10621 10623 10623 10624 10624 10625 10624 10626 10631 10635 10638 10641 10645 10649 10652 10655 10657 10660 10662 10665 10668 10671 10673 10675 10677 10679 10682 10683 10683 10683 10682 10685 10684 10682 10681 10678
10624 10623 10622 10621 10620 10620 10621 10622 10623 10623 10624 10626 10627 10628 10630 10632 10636 10640 10643 10646 10650 10652 10655 10659 10661 10663 10665 10667 10669 10671 10674 10675 10677 10679 10679 10680 10681 10680 10679 10678 10677 10674 10672
10627 10626 10625 10623 10623 10623 10623 10624 10624 10625 10626 10628 10629 10631 10633 10635 10638 10641 10643 10647 10650 10653 10655 10657 10660 10662 10664 10666 10668 10670 10671 10673 10674 10675 10675 10676 10677 10676 10674 10672 10668 10665 10661
10630 10630 10629 10627 10626 10626 10626 10625 10626 10627 10628 10629 10630 10632 10635 10637 10639 10641 10644 10647 10649 10652 10654 10656 10659 10661 10662 10664 10664 10665 10667 10668 10670 10671 10672 10672 10670 10669 10668 10666 10662 10656 10651
10631 10632 10632 10631 10630 10629 10629 10629 10628 10628 10628 10630 10631 10632 10634 10637 10639 10641 10643 10646 10647 10649 10652 10654 10656 10657 10660 10661 10662 10663 10665 10666 10668 10668 10668 10668 10666 10666 10665 10661 10657 10651 10643
10630 10632 10632 10633 10633 10632 10632 10632 10632 10631 10631 10631 10632 10633 10634 10635 10637 10639 10641 10643 10646 10648 10650 10652 10654 10656 10657 10658 10659 10660 10661 10663 10664 10663 10663 10664 10663 10662 10661 10658 10653 10648 10641
10628 10630 10632 10633 10634 10634 10635 10634 10635 10635 10635 10634 10634 10634 10635 10637 10638 10638 10640 10641 10643 10645 10647 10649 10650 10652 10653 10654 10655 10656 10657 10659 10660 10661 10661 10661 10659 10656 10655 10650 10644 10639 10635
10625 10627 10628 10630 10632 10633 10635 10636 10636 10637 10637 10637 10637 10636 10637 10637 10638 10639 10640 10640 10641 10643 10645 10646 10648 10649 10650 10652 10653 10654 10654 10655 10656 10657 10656 10654 10652 10650 10647 10641 10638 10632 10627
10620 10622 10625 10627 10629 10631 10632 10634 10636 10637 10638 10638 10638 10638 10638 10638 10637 10638 10639 10640 10641 10643 10644 10645 10646 10648 10648 10649 10649 10651 10652 10653 10653 10653 10651 10650 10646 10644 10640 10636 10629 10624 10620
10615 10618 10620 10623 10625 10627 10629 10631 10633 10635 10636 10637 10639 10639 10639 10639 10640 10640 10640 10641 10641 10642 10643 10644 10645 10646 10647 10648 10649 10649 10649 10649 10649 10648 10646 10644 10642 10640 10635 10628 10624 10617 10608
10611 10613 10615 10617 10620 10622 10624 10625 10628 10631 10633 10634 10635 10637 10638 10638 10638 10639 10639 10640 10640 10640 10640 10641 10642 10643 10643 10644 10644 10644 10644 10644 10642 10640 10638 10637 10633 10629 10624 10620 10614 10609 10601
10603 10605 10607 10610 10613 10615 10618 10619 10621 10624 10626 10629 10631 10632 10633 10634 10635 10636 10636 10637 10638 10637 10637 10638 10638 10638 10639 10639 10639 10639 10638 10637 10635 10632 10630 10627 10623 10619 10616 10611 10605 10599 10592
10591 10594 10597 10600 10603 10607 10610 10612 10613 10615 10616 10619 10621 10623 10624 10626 10627 10628 10630 10631 10632 10633 10634 10633 10633 10634 10633 10633 10632 10631 10630 10628 10626 10624 10622 10617 10613 10609 10606 10602 10597 10589 10583
10577 10582 10585 10589 10593 10596 10599 10601 10604 10606 10608 10609 10611 10613 10615 10614 10617 10620 10620 10622 10623 10623 10624 10625 10625 10625 10625 10624 10623 10622 10621 10619 10617 10614 10611 10608 10603 10599 10595 10593 10589 10583 10576